JEI424 EVRA-EDDS

Flight info

Callsign JEI424
Flight time N/A
Altitude 40000
Route VALED M869 LEP M864 ADAXA DCT NINTA DCT GOSOT/N0434F430 Z131 BANUB DCT BATEL DCT HLZ/N0433F410 M852 POVEL/N0434F430 DCT BERXO/N0434F410 DCT SILWE DCT OSBIT P605 TOSTU T726 LBU
Aircraft LJ35/M-SGHRWXY/SB1

Departure

Time 2026-05-06 18:54
Airport Riga International Airport (EVRA)

Arrival

Time N/A
Airport Stuttgart Airport (EDDS)
Time Latitude Longitude Altitude Speed Heading
2026-05-06 18:52 56.91265 23.96925 40 ft 11 kts
2026-05-06 18:53 56.91294 23.96938 41 ft 0 kts
2026-05-06 18:54 56.91297 23.96938 41 ft 0 kts
2026-05-06 18:54 56.91430 23.96961 39 ft 67 kts
2026-05-06 18:54 56.92230 23.97094 119 ft 152 kts
2026-05-06 18:54 56.93411 23.97281 958 ft 191 kts
2026-05-06 18:55 56.94862 23.97539 1874 ft 224 kts 11°
2026-05-06 18:55 56.96447 23.97564 3037 ft 238 kts 352°
2026-05-06 18:55 56.97899 23.96130 4362 ft 245 kts 318°
2026-05-06 18:55 56.98774 23.93462 5559 ft 252 kts 285°
2026-05-06 18:56 56.98792 23.90309 6754 ft 247 kts 252°
2026-05-06 18:56 56.97951 23.87690 7974 ft 238 kts 223°
2026-05-06 18:56 56.96679 23.85884 9200 ft 236 kts 215°
2026-05-06 18:56 56.95301 23.84037 10051 ft 264 kts 218°
2026-05-06 18:57 56.93927 23.81671 10964 ft 283 kts 228°
2026-05-06 18:57 56.92688 23.78725 11864 ft 302 kts 239°
2026-05-06 18:57 56.92006 23.75203 13460 ft 296 kts 252°
2026-05-06 18:57 56.91492 23.71543 14670 ft 301 kts 253°
2026-05-06 18:58 56.90985 23.67887 15795 ft 305 kts 253°
2026-05-06 18:58 56.90441 23.64092 16949 ft 310 kts 252°
2026-05-06 18:58 56.89878 23.60274 18086 ft 315 kts 252°
2026-05-06 18:58 56.89296 23.56395 19095 ft 320 kts 252°
2026-05-06 18:59 56.88707 23.52510 20090 ft 324 kts 252°
2026-05-06 18:59 56.88097 23.48508 20970 ft 334 kts 251°
2026-05-06 18:59 56.87459 23.44353 21518 ft 342 kts 251°
2026-05-06 18:59 56.86835 23.40286 22003 ft 341 kts 251°
2026-05-06 19:00 56.86194 23.36112 22515 ft 341 kts 251°
2026-05-06 19:00 56.85557 23.31978 23024 ft 340 kts 251°
2026-05-06 19:00 56.84923 23.27876 23536 ft 340 kts 251°
2026-05-06 19:00 56.84271 23.23674 23962 ft 339 kts 251°
2026-05-06 19:01 56.83636 23.19589 24404 ft 339 kts 251°
2026-05-06 19:01 56.83017 23.15622 24842 ft 339 kts 251°
2026-05-06 19:01 56.82381 23.11548 25300 ft 339 kts 251°
2026-05-06 19:01 56.81751 23.07527 25754 ft 339 kts 251°
2026-05-06 19:02 56.81102 23.03389 26241 ft 339 kts 251°
2026-05-06 19:02 56.80452 22.99255 26725 ft 339 kts 251°
2026-05-06 19:02 56.79801 22.95124 27218 ft 339 kts 251°
2026-05-06 19:02 56.79160 22.91066 27711 ft 339 kts 251°
2026-05-06 19:03 56.78514 22.86993 28220 ft 339 kts 251°
2026-05-06 19:03 56.77876 22.82974 28725 ft 339 kts 251°
2026-05-06 19:03 56.77230 22.78916 29246 ft 339 kts 251°
2026-05-06 19:03 56.76586 22.74876 29776 ft 339 kts 251°
2026-05-06 19:04 56.75929 22.70766 30308 ft 339 kts 251°
2026-05-06 19:04 56.75280 22.66717 30767 ft 339 kts 251°
2026-05-06 19:04 56.74633 22.62695 31235 ft 338 kts 251°
2026-05-06 19:04 56.73985 22.58668 31704 ft 338 kts 251°
2026-05-06 19:05 56.73329 22.54603 32192 ft 337 kts 251°
2026-05-06 19:05 56.72683 22.50608 32680 ft 336 kts 250°
2026-05-06 19:05 56.72027 22.46562 33187 ft 335 kts 250°
2026-05-06 19:05 56.71400 22.42605 33696 ft 334 kts 251°
2026-05-06 19:06 56.70811 22.38579 34167 ft 333 kts 252°
2026-05-06 19:06 56.70242 22.34568 34604 ft 331 kts 252°
2026-05-06 19:06 56.69684 22.30631 35043 ft 329 kts 252°
2026-05-06 19:06 56.69125 22.26709 35484 ft 327 kts 252°
2026-05-06 19:07 56.68574 22.22878 35927 ft 325 kts 252°
2026-05-06 19:07 56.68013 22.19005 36389 ft 323 kts 252°
2026-05-06 19:07 56.67444 22.15102 36874 ft 320 kts 252°
2026-05-06 19:07 56.66881 22.11254 37362 ft 317 kts 252°
2026-05-06 19:08 56.66328 22.07493 37848 ft 314 kts 252°
2026-05-06 19:08 56.65782 22.03791 38347 ft 310 kts 252°
2026-05-06 19:08 56.65233 22.00080 38813 ft 306 kts 253°
2026-05-06 19:08 56.64696 21.96457 39211 ft 301 kts 253°
2026-05-06 19:09 56.64163 21.92871 39616 ft 296 kts 253°
2026-05-06 19:09 56.63643 21.89380 39858 ft 298 kts 252°
2026-05-06 19:09 56.63096 21.85727 39883 ft 306 kts 252°
2026-05-06 19:10 56.61964 21.78190 39919 ft 323 kts 253°
2026-05-06 19:10 56.60778 21.70321 39937 ft 338 kts 253°
2026-05-06 19:11 56.59522 21.62018 39946 ft 352 kts 253°
2026-05-06 19:11 56.58226 21.53486 39950 ft 363 kts 253°
2026-05-06 19:12 56.56886 21.44716 39956 ft 373 kts 253°
2026-05-06 19:12 56.55511 21.35767 39954 ft 380 kts 253°
2026-05-06 19:13 56.54086 21.26540 39969 ft 387 kts 253°
2026-05-06 19:13 56.52638 21.17216 39952 ft 392 kts 253°
2026-05-06 19:14 56.51330 21.08083 39944 ft 396 kts 256°
2026-05-06 19:14 56.50388 20.98399 39939 ft 400 kts 259°
2026-05-06 19:15 56.49545 20.88602 39936 ft 402 kts 259°
2026-05-06 19:15 56.48702 20.78917 39933 ft 404 kts 259°
2026-05-06 19:16 56.47830 20.69033 39930 ft 405 kts 259°
2026-05-06 19:16 56.46926 20.58845 39935 ft 418 kts 259°
2026-05-06 19:17 56.46004 20.48564 39937 ft 426 kts 259°
2026-05-06 19:17 56.45049 20.38046 39932 ft 428 kts 259°
2026-05-06 19:18 56.44087 20.27554 39927 ft 429 kts 259°
2026-05-06 19:18 56.43115 20.17138 39929 ft 429 kts 258°
2026-05-06 19:19 56.42085 20.06787 39929 ft 426 kts 258°
2026-05-06 19:19 56.41038 19.96467 39923 ft 425 kts 258°
2026-05-06 19:20 56.39989 19.86153 39932 ft 426 kts 258°
2026-05-06 19:20 56.38921 19.75703 39928 ft 426 kts 258°
2026-05-06 19:21 56.37850 19.65319 39931 ft 426 kts 258°
2026-05-06 19:21 56.36791 19.54862 39921 ft 426 kts 258°
2026-05-06 19:22 56.35739 19.44602 39927 ft 426 kts 258°
2026-05-06 19:22 56.34648 19.34216 39935 ft 426 kts 258°
2026-05-06 19:23 56.33538 19.23775 39941 ft 426 kts 258°
2026-05-06 19:23 56.32415 19.13321 39938 ft 426 kts 258°
2026-05-06 19:24 56.31280 19.02872 39936 ft 426 kts 258°
2026-05-06 19:24 56.30146 18.92532 39934 ft 426 kts 258°
2026-05-06 19:25 56.28997 18.82108 39937 ft 426 kts 258°
2026-05-06 19:25 56.27847 18.71721 39938 ft 426 kts 258°
2026-05-06 19:26 56.26695 18.61392 39956 ft 427 kts 258°
2026-05-06 19:26 56.25521 18.50969 39934 ft 427 kts 257°
2026-05-06 19:27 56.24346 18.40626 39941 ft 427 kts 257°
2026-05-06 19:27 56.23046 18.30247 39928 ft 426 kts 252°
2026-05-06 19:28 56.20311 18.20989 39924 ft 425 kts 235°
2026-05-06 19:28 56.16869 18.12504 39943 ft 425 kts 235°
2026-05-06 19:29 56.13477 18.04102 39949 ft 425 kts 234°
2026-05-06 19:29 56.10120 17.95692 39950 ft 426 kts 235°
2026-05-06 19:30 56.06732 17.87123 39944 ft 426 kts 235°
2026-05-06 19:30 56.03382 17.78631 39945 ft 426 kts 235°
2026-05-06 19:31 56.00030 17.70153 39951 ft 426 kts 235°
2026-05-06 19:31 55.94918 17.57280 39947 ft 426 kts 235°
2026-05-06 19:32 55.91494 17.48694 39945 ft 426 kts 235°
2026-05-06 19:32 55.88069 17.40130 39950 ft 426 kts 235°
2026-05-06 19:33 55.84627 17.31555 39950 ft 426 kts 234°
2026-05-06 19:33 55.81172 17.22984 39947 ft 426 kts 234°
2026-05-06 19:34 55.77741 17.14505 39950 ft 426 kts 234°
2026-05-06 19:34 55.74305 17.06042 39964 ft 426 kts 234°
2026-05-06 19:35 55.70881 16.97636 39953 ft 426 kts 234°
2026-05-06 19:35 55.67449 16.89242 39932 ft 426 kts 234°
2026-05-06 19:36 55.64560 16.82198 39942 ft 426 kts 234°
2026-05-06 19:36 55.60524 16.72392 39946 ft 426 kts 234°
2026-05-06 19:37 55.57634 16.65392 39942 ft 426 kts 234°
2026-05-06 19:37 55.54131 16.56938 39942 ft 426 kts 234°
2026-05-06 19:38 55.50634 16.48525 39939 ft 426 kts 234°
2026-05-06 19:38 55.47152 16.40176 39935 ft 426 kts 234°
2026-05-06 19:39 55.43660 16.31834 39942 ft 426 kts 234°
2026-05-06 19:39 55.40149 16.23471 39941 ft 426 kts 234°
2026-05-06 19:40 55.36644 16.15154 39941 ft 426 kts 234°
2026-05-06 19:40 55.33163 16.06923 39944 ft 426 kts 233°
2026-05-06 19:41 55.29693 15.98750 39945 ft 426 kts 233°
2026-05-06 19:41 55.26185 15.90508 39930 ft 426 kts 233°
2026-05-06 19:42 55.22633 15.82185 39943 ft 426 kts 233°
2026-05-06 19:42 55.19127 15.74000 39946 ft 426 kts 233°
2026-05-06 19:43 55.15618 15.65838 39950 ft 426 kts 233°
2026-05-06 19:43 55.12058 15.57587 39950 ft 426 kts 233°
2026-05-06 19:44 55.08502 15.49371 39960 ft 427 kts 233°
2026-05-06 19:44 55.04929 15.41144 39950 ft 427 kts 233°
2026-05-06 19:45 55.01392 15.33026 39945 ft 427 kts 233°
2026-05-06 19:45 54.97795 15.24798 39944 ft 427 kts 233°
2026-05-06 19:46 54.94201 15.16599 39947 ft 427 kts 233°
2026-05-06 19:46 54.90633 15.08494 39947 ft 427 kts 233°
2026-05-06 19:47 54.87081 15.00451 39944 ft 427 kts 233°
2026-05-06 19:47 54.83488 14.92340 39936 ft 427 kts 233°
2026-05-06 19:48 54.79793 14.84610 39945 ft 427 kts 228°
2026-05-06 19:48 54.75662 14.77526 39941 ft 428 kts 224°
2026-05-06 19:49 54.71339 14.70503 39948 ft 428 kts 224°
2026-05-06 19:49 54.67167 14.63724 39940 ft 428 kts 224°
2026-05-06 19:50 54.62977 14.56903 39934 ft 428 kts 224°
2026-05-06 19:50 54.58775 14.50067 39937 ft 428 kts 224°
2026-05-06 19:51 54.54514 14.43149 39941 ft 428 kts 224°
2026-05-06 19:51 54.50306 14.36337 39936 ft 428 kts 224°
2026-05-06 19:52 54.46088 14.29530 39935 ft 428 kts 224°
2026-05-06 19:52 54.41893 14.22300 39921 ft 428 kts 227°
2026-05-06 19:53 54.37824 14.14905 39935 ft 428 kts 227°
2026-05-06 19:53 54.33811 14.07702 39932 ft 429 kts 227°
2026-05-06 19:54 54.29757 14.00504 39933 ft 429 kts 227°
2026-05-06 19:54 54.25665 13.93282 39958 ft 429 kts 226°
2026-05-06 19:55 54.21516 13.85983 39935 ft 429 kts 226°
2026-05-06 19:55 54.17369 13.78711 39928 ft 429 kts 226°
2026-05-06 19:56 54.13218 13.71464 39921 ft 429 kts 226°
2026-05-06 19:56 54.09151 13.64382 39923 ft 429 kts 226°
2026-05-06 19:57 54.05082 13.57319 39917 ft 429 kts 226°
2026-05-06 19:57 54.00943 13.50152 39917 ft 429 kts 226°
2026-05-06 19:58 53.96816 13.43029 39912 ft 428 kts 226°
2026-05-06 19:58 53.92688 13.35924 39915 ft 428 kts 226°
2026-05-06 19:59 53.88519 13.28767 39911 ft 428 kts 226°
2026-05-06 19:59 53.84461 13.21823 39913 ft 428 kts 226°
2026-05-06 20:00 53.80311 13.14743 39922 ft 428 kts 226°
2026-05-06 20:00 53.76173 13.07708 39904 ft 428 kts 225°
2026-05-06 20:01 53.71968 13.00581 39907 ft 429 kts 225°
2026-05-06 20:01 53.67782 12.93504 39906 ft 429 kts 225°
2026-05-06 20:02 53.63668 12.86568 39903 ft 429 kts 225°
2026-05-06 20:02 53.59531 12.79616 39901 ft 429 kts 225°
2026-05-06 20:03 53.55327 12.72573 39894 ft 429 kts 225°
2026-05-06 20:03 53.51094 12.65501 39898 ft 429 kts 225°
2026-05-06 20:04 53.46913 12.58537 39894 ft 429 kts 225°
2026-05-06 20:04 53.42673 12.51496 39899 ft 430 kts 225°
2026-05-06 20:05 53.38508 12.44601 39891 ft 430 kts 225°
2026-05-06 20:05 53.34261 12.37590 39889 ft 431 kts 225°
2026-05-06 20:06 53.29989 12.30559 39884 ft 431 kts 225°
2026-05-06 20:06 53.25713 12.23540 39885 ft 431 kts 225°
2026-05-06 20:07 53.21463 12.16585 39877 ft 431 kts 225°
2026-05-06 20:07 53.17191 12.09617 39881 ft 431 kts 225°
2026-05-06 20:08 53.12948 12.02714 39866 ft 431 kts 224°
2026-05-06 20:08 53.08655 11.95752 39874 ft 431 kts 224°
2026-05-06 20:09 53.04361 11.88808 39873 ft 431 kts 224°
2026-05-06 20:09 53.00055 11.81865 39876 ft 431 kts 224°
2026-05-06 20:10 52.95785 11.74999 39863 ft 431 kts 224°
2026-05-06 20:10 52.91496 11.68125 39875 ft 432 kts 224°
2026-05-06 20:11 52.87233 11.61311 39867 ft 433 kts 224°
2026-05-06 20:11 52.82968 11.54514 39868 ft 433 kts 224°
2026-05-06 20:12 52.78691 11.47719 39862 ft 433 kts 224°
2026-05-06 20:12 52.74340 11.40828 39862 ft 433 kts 224°
2026-05-06 20:13 52.69814 11.34367 39844 ft 434 kts 213°
2026-05-06 20:13 52.64610 11.29509 39853 ft 434 kts 210°
2026-05-06 20:14 52.59451 11.24902 39855 ft 434 kts 210°
2026-05-06 20:14 52.54245 11.20194 39853 ft 434 kts 210°
2026-05-06 20:15 52.49040 11.15460 39852 ft 434 kts 210°
2026-05-06 20:15 52.43794 11.10686 39847 ft 435 kts 210°
2026-05-06 20:16 52.38574 11.05946 39840 ft 435 kts 210°
2026-05-06 20:16 52.33394 11.01256 39831 ft 435 kts 210°
2026-05-06 20:17 52.28133 10.96503 39831 ft 435 kts 210°
2026-05-06 20:17 52.22938 10.91824 39829 ft 435 kts 210°
2026-05-06 20:18 52.17647 10.87072 39835 ft 436 kts 210°
2026-05-06 20:18 52.12489 10.82450 39836 ft 436 kts 210°
2026-05-06 20:19 52.07432 10.77315 39831 ft 436 kts 215°
2026-05-06 20:19 52.02462 10.71835 39816 ft 436 kts 215°
2026-05-06 20:20 51.97514 10.66449 39827 ft 436 kts 214°
2026-05-06 20:20 51.92522 10.61102 39825 ft 436 kts 214°
2026-05-06 20:21 51.87468 10.55736 39823 ft 436 kts 214°
2026-05-06 20:21 51.82478 10.50460 39812 ft 436 kts 214°
2026-05-06 20:22 51.77497 10.45212 39818 ft 436 kts 214°
2026-05-06 20:22 51.72477 10.39937 39809 ft 436 kts 214°
2026-05-06 20:23 51.67464 10.34682 39813 ft 436 kts 214°
2026-05-06 20:23 51.63282 10.30310 39813 ft 436 kts 214°
2026-05-06 20:24 51.58308 10.25123 39820 ft 435 kts 213°
2026-05-06 20:24 51.52403 10.18981 39817 ft 435 kts 213°
2026-05-06 20:25 51.48276 10.14701 39816 ft 435 kts 213°
2026-05-06 20:25 51.43363 10.09618 39819 ft 436 kts 213°
2026-05-06 20:26 51.38338 10.04432 39816 ft 438 kts 213°
2026-05-06 20:26 51.33315 9.99262 39821 ft 438 kts 213°
2026-05-06 20:27 51.28250 9.94040 39827 ft 438 kts 213°
2026-05-06 20:27 51.22991 9.89415 39808 ft 440 kts 202°
2026-05-06 20:28 51.20077 9.88146 39802 ft 442 kts 191°
2026-05-06 20:28 51.17089 9.87788 39805 ft 443 kts 184°
2026-05-06 20:28 51.10940 9.87281 39819 ft 443 kts 186°
2026-05-06 20:29 51.04936 9.86687 39823 ft 443 kts 185°
2026-05-06 20:29 50.98978 9.86140 39818 ft 443 kts 185°
2026-05-06 20:30 50.89916 9.85343 39814 ft 443 kts 185°
2026-05-06 20:31 50.83911 9.84819 39820 ft 443 kts 185°
2026-05-06 20:31 50.77962 9.84304 39818 ft 443 kts 185°
2026-05-06 20:32 50.72000 9.83790 39818 ft 443 kts 185°
2026-05-06 20:32 50.65841 9.83260 39817 ft 443 kts 185°
2026-05-06 20:33 50.59738 9.82736 39810 ft 441 kts 185°
2026-05-06 20:33 50.53682 9.82218 39812 ft 441 kts 185°
2026-05-06 20:34 50.47594 9.81699 39818 ft 441 kts 185°
2026-05-06 20:34 50.41612 9.81195 39809 ft 441 kts 185°
2026-05-06 20:35 50.35513 9.80693 39815 ft 442 kts 185°
2026-05-06 20:35 50.29481 9.80190 39814 ft 442 kts 185°
2026-05-06 20:36 50.23528 9.79690 39814 ft 442 kts 185°
2026-05-06 20:36 50.17504 9.79184 39809 ft 442 kts 185°
2026-05-06 20:37 50.11494 9.78680 39816 ft 443 kts 185°
2026-05-06 20:37 50.05437 9.78375 39808 ft 443 kts 182°
2026-05-06 20:38 49.99319 9.78611 39807 ft 444 kts 179°
2026-05-06 20:38 49.93206 9.79097 39814 ft 444 kts 179°
2026-05-06 20:39 49.87095 9.79559 39812 ft 444 kts 179°
2026-05-06 20:39 49.80951 9.79974 39822 ft 444 kts 179°
2026-05-06 20:40 49.74784 9.80373 39814 ft 442 kts 179°
2026-05-06 20:40 49.71770 9.80572 39750 ft 427 kts 179°
2026-05-06 20:40 49.68842 9.80764 39247 ft 424 kts 180°
2026-05-06 20:40 49.65881 9.80912 38741 ft 416 kts 180°
2026-05-06 20:41 49.63049 9.81074 38169 ft 409 kts 179°
2026-05-06 20:41 49.60216 9.81358 37368 ft 407 kts 177°
2026-05-06 20:41 49.57409 9.81869 36586 ft 404 kts 173°
2026-05-06 20:41 49.54657 9.82608 35839 ft 398 kts 171°
2026-05-06 20:42 49.51965 9.83394 35122 ft 390 kts 171°
2026-05-06 20:42 49.49314 9.84175 34430 ft 383 kts 171°
2026-05-06 20:42 49.46720 9.84929 33750 ft 376 kts 171°
2026-05-06 20:42 49.44170 9.85659 32974 ft 370 kts 171°
2026-05-06 20:43 49.41658 9.86368 32180 ft 364 kts 171°
2026-05-06 20:43 49.39163 9.87058 31177 ft 363 kts 172°
2026-05-06 20:43 49.36684 9.87063 30179 ft 363 kts 189°
2026-05-06 20:43 49.34326 9.85718 29070 ft 365 kts 208°
2026-05-06 20:44 49.32308 9.83335 28032 ft 366 kts 218°
2026-05-06 20:44 49.30433 9.80697 27075 ft 365 kts 221°
2026-05-06 20:44 49.28594 9.78009 26185 ft 364 kts 221°
2026-05-06 20:44 49.26773 9.75354 25613 ft 360 kts 221°
2026-05-06 20:45 49.24958 9.72748 25046 ft 357 kts 221°
2026-05-06 20:45 49.23143 9.70186 24504 ft 354 kts 220°
2026-05-06 20:45 49.21332 9.67661 23983 ft 351 kts 220°
2026-05-06 20:45 49.19523 9.65162 23466 ft 349 kts 220°
2026-05-06 20:46 49.17719 9.62685 22869 ft 347 kts 220°
2026-05-06 20:46 49.15925 9.60231 22282 ft 346 kts 220°
2026-05-06 20:46 49.14134 9.57785 21717 ft 344 kts 220°
2026-05-06 20:46 49.12352 9.55357 21166 ft 342 kts 221°
2026-05-06 20:47 49.10596 9.52971 20634 ft 340 kts 221°
2026-05-06 20:47 49.08834 9.50574 20110 ft 339 kts 221°
2026-05-06 20:47 49.07078 9.48191 19600 ft 337 kts 220°
2026-05-06 20:47 49.05265 9.45932 19094 ft 336 kts 218°
2026-05-06 20:48 49.03478 9.43646 18582 ft 334 kts 220°
2026-05-06 20:48 49.01714 9.41315 18003 ft 336 kts 221°
2026-05-06 20:48 48.99986 9.38930 17493 ft 333 kts 222°
2026-05-06 20:48 48.98304 9.36539 17033 ft 329 kts 223°
2026-05-06 20:49 48.96439 9.34571 16544 ft 327 kts 204°
2026-05-06 20:49 48.94225 9.33905 16067 ft 327 kts 180°
2026-05-06 20:49 48.91985 9.34488 15616 ft 326 kts 167°
2026-05-06 20:49 48.89811 9.35457 15186 ft 324 kts 165°
2026-05-06 20:50 48.87647 9.36532 14514 ft 329 kts 164°
2026-05-06 20:50 48.85511 9.37646 13832 ft 328 kts 163°
2026-05-06 20:50 48.83383 9.38887 13095 ft 330 kts 155°
2026-05-06 20:50 48.81606 9.41113 12339 ft 337 kts 132°
2026-05-06 20:51 48.80519 9.44270 11599 ft 342 kts 109°
2026-05-06 20:51 48.80299 9.47860 10891 ft 345 kts 85°
2026-05-06 20:51 48.80776 9.51405 10267 ft 336 kts 76°
2026-05-06 20:51 48.81357 9.54684 9855 ft 310 kts 75°
2026-05-06 20:52 48.81946 9.57716 9396 ft 290 kts 73°
2026-05-06 20:52 48.82523 9.60592 8919 ft 281 kts 73°
2026-05-06 20:52 48.83113 9.63358 8582 ft 270 kts 72°
2026-05-06 20:52 48.83655 9.66061 8268 ft 264 kts 78°
2026-05-06 20:53 48.83660 9.68769 8103 ft 254 kts 107°
2026-05-06 20:53 48.82834 9.71028 8024 ft 242 kts 138°
2026-05-06 20:53 48.81437 9.72243 8008 ft 227 kts 171°
2026-05-06 20:53 48.79943 9.72099 7994 ft 213 kts 205°
2026-05-06 20:54 48.78718 9.70940 7977 ft 205 kts 219°
2026-05-06 20:54 48.77877 9.69292 7980 ft 198 kts 249°
2026-05-06 20:54 48.77459 9.67327 7987 ft 195 kts 255°
2026-05-06 20:54 48.77126 9.65361 7985 ft 192 kts 256°
2026-05-06 20:55 48.76805 9.63404 8002 ft 191 kts 255°